Location: Observatoire
(46.1952°N, 5.3391°E)
Time: 09:05:23
(UTC+01:00)

Injun/Solrad 3 - Visible Passes

Search period start: 16 February 2026 00:00
Search period end: 26 February 2026 00:00
Orbit: 873 x 983 km, 66.8° (Epoch: 15 February)

Date Brightness Start Highest point End Pass type
(mag) Time Alt. Az. Time Alt. Az. Time Alt. Az.
16 Feb 9.2 18:56:05 10° NNW 19:00:40 21° NNE 19:04:21 13° ENE visible
16 Feb 7.8 20:41:59 10° NNW 20:48:01 77° NE 20:48:01 77° NE visible
16 Feb 10.2 22:29:33 10° WNW 22:31:41 17° WNW 22:31:41 17° WNW visible
17 Feb 8.9 19:06:56 10° NNW 19:12:06 27° NE 19:15:44 17° E visible
17 Feb 7.9 20:53:03 10° NW 20:59:12 76° WSW 20:59:24 75° SW visible
17 Feb 10.5 22:41:50 10° WNW 22:43:05 12° W 22:43:05 12° W visible
18 Feb 8.6 19:17:49 10° NNW 19:23:26 36° NE 19:27:14 19° E visible
18 Feb 8.5 21:04:12 10° NW 21:10:09 52° WSW 21:10:55 49° SW visible
19 Feb 8.2 19:28:43 10° NNW 19:34:41 49° NE 19:38:54 20° ESE visible
19 Feb 9.2 21:15:29 10° NW 21:21:02 36° WSW 21:22:36 31° SW visible
20 Feb 7.9 19:39:41 10° NNW 19:45:50 69° NE 19:50:45 17° SE visible
20 Feb 9.8 21:27:00 10° NW 21:31:49 24° WSW 21:34:28 18° SW visible
21 Feb 8.0 19:50:43 10° NW 19:56:54 85° WSW 20:02:51 12° SSE visible
21 Feb 10.4 21:38:59 10° WNW 21:42:33 16° WSW 21:46:08 10° SW visible
22 Feb 8.5 20:01:50 10° NW 20:07:54 59° WSW 20:14:06 10° SSE visible
23 Feb 9.2 20:13:04 10° NW 20:18:48 40° WSW 20:24:38 10° S visible
24 Feb 8.0 18:37:23 10° NNW 18:43:31 62° NE 18:49:46 10° SE visible
24 Feb 9.9 20:24:30 10° NW 20:29:37 28° WSW 20:34:49 10° SSW visible
25 Feb 8.0 18:48:23 10° NNW 18:54:37 86° ENE 19:00:58 10° SSE visible
25 Feb 10.5 20:36:17 10° WNW 20:40:22 18° WSW 20:44:29 10° SW visible
